ONEWEB-0708, 61613

Orbit data source: Space-Track

ONEWEB-0708, 61613 is a payload satellite owned by Eut. One Web (UK) in LEO that was launched on Sun, 20 Oct 2024 UTC via an FALCON 9 launch vehicle from the Air Force Western Test Range (AFWTR). Payload-class satellites include a variety of spacecraft equipped with specific instruments for various scientific and technological missions. These include communications satellites like Starlink; space stations such as the ISS; scientific satellites like the Hubble; Earth observation satellites from companies like Planet Labs, Umbra, and HawkEye 360; GPS; miniature CubeSats for education and research; and military/defense satellites.

Loading next visibility...
Identifier
61613, 2024-188V
Orbit
LEO
Country
Flag of UKUK
Related business
Manufacturer
One Web
Mission
Operational Commercial Communications
Bus & Motor
ARROW, Unknown motor
Mass
148 kg wet, ~140 kg dry
Launch date (UTC)
2024-10-20 (2 years ago)
Launch vehicle
FALCON 9
Launch site
Air Force Western Test Range (AFWTR)
Object type
Payload
Rocket body
Debris
Shape & HBR
Trap Box + 2 Pan, 6.7 m
Radar Cross Section
3.464 m², Large (>1 m²)

Expand to show TLE details & history
Last TLE update: 8 hours ago

TLE from 8 hours ago
0 ONEWEB-0708
1 61613U 24188V   26236.65362817 -.00000304  00000-0 -90653-3 0  9992
2 61613  87.8855  22.6356 0001226 102.9449 257.1815 13.10370284 92261
Epoch: 2026-08-24T15:41Z
TLE epoch observation values (Epoch: 2026-08-24T15:41:13.473Z)
Latitude
-0.00007°
Longitude
174.39722°
Altitude
1,224.821 km
Speed
7.242 km/s
True Right ascension
01h 30m 32s
True Declination
0° 00' 00"
Sunlit
Object was in full shadow at epoch
Visualization orbit readout
Latitude
Unknown
Longitude
Unknown
Altitude
Unknown
Speed
Unknown
Apparent Right ascension
Unknown
Apparent Declination
Unknown
Sunlit
N/A
Visualization observer readout
Local Sidereal Time
15:18:43
Azimuth
Unknown
Elevation
Unknown
Doppler factor
Unknown
Orbital elements
Apogee altitude
1,219.778 km
Perigee altitude
1,217.915 km
Semi-major axis
7,596.984 km
Eccentricity
0.00012
Inclination
87.8855°
RAAN
22.6356°
Arg. of periapsis
102.9449°
True anomaly
257.1678°
Mean anomaly
257.1815°
Eccentric anomaly
257.17465°
Mean motion
3.27779 °/min
Orbital period
109.83 mins
BSTAR
-0.00090653
Loading maneuver chart data...
Computing Atmospheric mass density...
Loading historical data...
Loading historical data...
Loading historical data...
Loading historical data...
Loading historical data...
Loading historical data...
Loading historical data...

Documentation

Showing up to 5 results
|